Tracking 25370 objects as of 25-Jan-2022
HD Live streaming from Space Station
objects crossing your sky now

STARLINK-3312

Track STARLINK-3312 now!
10-day predictions
STARLINK-3312 is classified as:


NORAD ID: 50850
Int'l Code: 2022-001AZ
Perigee: 355.7 km
Apogee: 357.8 km
Inclination: 53.2 °
Period: 91.5 minutes
Semi major axis: 6727 km
RCS: Unknown
Launch date: January 6, 2022
Source: United States (US)
Launch site: AIR FORCE EASTERN TEST RANGE (AFETR)
aabbcc
Your satellite tracking list
Your tracking list is empty




NASA's NSSDC Master Catalog

Two Line Element Set (TLE):
1 50850U 22001AZ  22024.58334491 -.00354857  00000-0 -26264-2 0  9996
2 50850  53.2159 111.4767 0001548  40.9935  15.8686 15.73248844  3362
Source of the keplerian elements: AFSPC